GW3895 Weather Reports


time (UTC)temp
F
wind
direction
speed
knots
gust
knots
rain 1hr
in
rain 24hr
in
rain mn
in
humidity
%
barometer
mb
20260506221643 64 72 0.9 6.1 0.00 0.00 0.00 45 1012.9
20260506220138 66 110 2.6 6.1 0.00 0.00 0.00 44 1012.9
20260506214633 67 142 1.7 8.7 0.00 0.00 0.00 43 1012.9
20260506213132 69 114 2.6 8.7 0.00 0.00 0.00 40 1012.9
20260506211632 71 147 1.7 8.7 0.00 0.00 0.00 36 1012.4
20260506210128 70 214 2.6 12.2 0.00 0.00 0.00 27 1012.4
20260506204624 71 148 1.7 7.0 0.00 0.00 0.00 27 1012.4
20260506203121 70 172 2.6 11.3 0.00 0.00 0.00 28 1012.4
20260506201618 73 147 2.6 9.6 0.00 0.00 0.00 27 1012.1
20260506200114 74 115 1.7 9.6 0.00 0.00 0.00 28 1012.1
20260506194610 73 167 1.7 8.7 0.00 0.00 0.00 29 1012.1
20260506193108 73 178 1.7 7.0 0.00 0.00 0.00 30 1012.4
20260506191603 73 92 1.7 6.1 0.00 0.00 0.00 32 1012.4
20260506190059 73 131 1.7 7.8 0.00 0.00 0.00 32 1012.1
20260506184556 72 171 1.7 10.4 0.00 0.00 0.00 35 1012.4
20260506183051 70 139 2.6 10.4 0.00 0.00 0.00 39 1012.1
20260506181550 69 152 2.6 8.7 0.00 0.00 0.00 42 1012.4
20260506180046 68 149 2.6 8.7 0.00 0.00 0.00 44 1012.4
20260506174543 67 125 1.7 8.7 0.00 0.00 0.00 47 1012.4
20260506173039 66 144 1.7 7.0 0.00 0.00 0.00 47 1012.4
20260506171536 66 158 0.9 5.2 0.00 0.00 0.00 48 1012.9
20260506170035 64 180 0.9 5.2 0.00 0.00 0.00 49 1012.9
20260506164532 63 179 0.9 7.8 0.00 0.00 0.00 51 1012.9
20260506163027 61 140 1.7 6.1 0.00 0.00 0.00 53 1013.2
20260506161524 58 137 2.6 5.2 0.00 0.00 0.00 55 1013.5
20260506155116 57 129 2.6 6.1 0.00 0.00 0.00 56 1013.5
20260506153016 57 129 2.6 6.1 0.00 0.00 0.00 56 1013.5
20260506151514 56 143 0.9 4.3 0.00 0.00 0.00 57 1013.5
20260506150011 55 193 0.0 1.7 0.00 0.00 0.00 59 1013.5
20260506144507 54 193 0.0 0.9 0.00 0.00 0.00 60 1013.5
20260506143006 53 235 0.0 2.6 0.00 0.00 0.00 60 1013.5
20260506141505 53 235 0.0 2.6 0.00 0.00 0.00 60 1013.5
20260506140003 51 217 0.0 3.5 0.00 0.00 0.00 61 1013.5
20260506134458 51 187 0.0 0.0 0.00 0.00 0.00 60 1013.2
20260506132954 52 187 0.0 3.5 0.00 0.00 0.00 59 1013.2
20260506131450 51 187 0.0 0.0 0.00 0.00 0.00 59 1013.2
20260506125948 52 187 0.0 1.7 0.00 0.00 0.00 58 1013.2
20260506124447 52 187 0.0 1.7 0.00 0.00 0.00 58 1013.2
20260506122946 52 187 0.0 1.7 0.00 0.00 0.00 57 1013.2
20260506121443 52 187 0.0 0.0 0.00 0.00 0.00 57 1012.9
20260506115941 52 187 0.0 0.0 0.00 0.00 0.00 57 1012.9
20260506114440 52 187 0.0 0.0 0.00 0.00 0.00 57 1012.9
20260506112937 53 187 0.0 0.0 0.00 0.00 0.00 56 1012.9
20260506111436 53 187 0.0 0.9 0.00 0.00 0.00 55 1012.9
20260506105933 53 187 0.0 0.0 0.00 0.00 0.00 55 1012.4
20260506104431 54 187 0.0 0.0 0.00 0.00 0.00 55 1012.4
20260506102928 53 194 0.0 2.6 0.00 0.00 0.00 56 1012.4
20260506101426 53 0 0.0 1.7 0.00 0.00 0.00 56 1012.4
20260506095925 54 0 0.9 2.6 0.00 0.00 0.00 54 1012.4
20260506094424 54 246 0.0 4.3 0.00 0.00 0.00 53 1012.4
20260506092922 55 216 0.0 3.5 0.00 0.00 0.00 53 1012.4
20260506091420 55 216 0.0 2.6 0.00 0.00 0.00 53 1012.4
20260506085917 54 216 0.0 0.0 0.00 0.00 0.00 56 1012.4
20260506084413 54 216 0.0 1.7 0.00 0.00 0.00 56 1012.4
20260506082910 54 216 0.0 1.7 0.00 0.00 0.00 57 1012.9
20260506081407 54 216 0.0 4.3 0.00 0.00 0.00 58 1012.4
20260506072859 54 216 0.0 0.0 0.00 0.00 0.00 58 1012.4
20260506071358 55 216 0.0 0.0 0.00 0.00 0.00 54 1012.4
20260506061344 56 216 0.0 0.0 0.00 0.00 0.00 51 1012.1
20260506051336 58 231 0.0 5.2 0.00 0.00 0.00 48 1012.1
20260506044330 59 253 0.0 3.5 0.00 0.00 0.00 45 1012.1
20260506042829 59 244 0.9 5.2 0.00 0.00 0.00 45 1012.1
20260506041328 59 251 0.9 6.1 0.00 0.00 0.00 44 1012.1
20260506035825 60 183 0.0 3.5 0.00 0.00 0.00 44 1011.6
20260506034322 60 193 0.0 3.5 0.00 0.00 0.00 42 1011.6
20260506032819 61 236 0.0 3.5 0.00 0.00 0.00 41 1011.3
20260506031316 63 239 0.0 4.3 0.00 0.00 0.00 39 1011.3
20260506025813 64 252 0.0 5.2 0.00 0.00 0.00 37 1010.9
20260506024309 65 260 0.9 7.8 0.00 0.00 0.00 36 1010.9
20260506022805 66 209 0.0 6.1 0.00 0.00 0.00 35 1010.9
20260506021303 68 249 0.9 7.8 0.00 0.00 0.00 34 1010.9
20260506015801 68 246 0.9 5.2 0.00 0.00 0.00 33 1010.5
20260506014257 69 227 1.7 9.6 0.00 0.00 0.00 32 1010.5
20260506012753 70 204 0.9 5.2 0.00 0.00 0.00 32 1010.1
20260506011249 71 185 0.9 9.6 0.00 0.00 0.00 31 1009.7
20260506005748 71 54 0.9 6.1 0.00 0.00 0.00 31 1009.7
20260506004244 72 130 1.7 7.8 0.00 0.00 0.00 31 1009.7
20260506002744 72 90 1.7 5.2 0.00 0.00 0.00 33 1009.7
20260506001240 72 145 3.5 8.7 0.00 0.00 0.00 33 1009.7
20260505235737 76 212 0.9 6.1 0.00 0.00 0.00 30 1009.7
20260505234235 74 102 0.9 4.3 0.00 0.00 0.00 31 1009.7
20260505232732 74 112 0.0 3.5 0.00 0.00 0.00 31 1009.7
20260505231231 75 120 1.7 7.8 0.00 0.00 0.00 31 1009.7
20260505225727 74 25 0.9 4.3 0.00 0.00 0.00 32 1009.7
20260505224223 74 114 3.5 8.7 0.00 0.00 0.00 33 1010.1
20260505222719 75 123 1.7 5.2 0.00 0.00 0.00 34 1010.1